Location: ??
(34.9170°N, 135.5016°E)
Time: 23:38:38
(UTC+00:00)

RS-15 - Pass Details

Date: 22 April 2021
Orbit: 1888 x 2157 km, 64.8° (Epoch: 12 May)

Event Time Altitude Azimuth Distance (km) Brightness Sun altitude
Rises 11:29:34 0° 260° (W) 5,303 11.0 -21.9°
Reaches altitude 10° 11:33:48 10° 274° (W) 4,337 10.6 -22.6°
Maximum altitude 11:42:22 24° 325° (NW) 3,387 10.0 -24.1°
Drops below altitude 10° 11:51:18 10° 16° (NNE) 4,509 10.2 -25.5°
Sets 11:55:54 0° 30° (NNE) 5,556 10.5 -26.2°
